Regional Weather Roundup
Issued by NWS

Home | Current Version | Previous Version | Graphics & Text | Print | Product List | Glossary Off
Versions: 1 2 3 4 5 6 7 8 9 10 11 12 13 14 15 16 17 18 19 20 21 22 23 24 25 26 27 28 29 30 31 32 33 34 35 36 37 38 39 40 41 42 43 44 45 46 47 48 49 50

188
ASUS43 KMKX 210700
RWRWI

WISCONSIN REGIONAL WEATHER ROUNDUP
NATIONAL WEATHER SERVICE MILWAUKEE/SULLIVAN WI
100 AM CST TUE FEB 21 2017

NOTE: "FAIR" INDICATES FEW OR NO CLOUDS BELOW 12,000 FEET WITH NO
SIGNIFICANT WEATHER AND/OR OBSTRUCTIONS TO VISIBILITY.

WIZ001-002-006>008-014>016-023>028-210800-
NORTHWEST WISCONSIN

CITY           SKY/WX    TMP DP  RH WIND       PRES   REMARKS
SUPERIOR ARPT  CLOUDY    41  39  92 W18       29.71R
ASHLAND        CLOUDY    47  44  90 W17G30    29.67R
HAYWARD        CLOUDY    47  44  90 VRB6      29.72R
SIREN          CLOUDY    41  39  93 W13       29.78R
CUMBERLAND     CLOUDY    41  39  93 W14       29.77R
RICE LAKE      CLOUDY    44  43  99 W14G20    29.77R
CHETEK         CLOUDY    45  44  97 W8G18     29.77R
LADYSMITH      DRIZZLE   50  49  98 W15G24    29.73R
EAU CLAIRE     NOT AVBL
MENOMONIE      CLOUDY    43  42  99 W14G24    29.82R
NEW RICHMOND   CLOUDY    40  40  99 W12G18    29.82R WCI  33
OSCEOLA        NOT AVBL
$$

WIZ003>005-009-010-017-018-210800-
NORTH CENTRAL WISCONSIN

CITY           SKY/WX    TMP DP  RH WIND       PRES   REMARKS
MANITOWISH WTR RAIN      46  46 100 S12G17    29.63F
ARBOR VITAE    DRIZZLE   49  48  97 SW10      29.65F
WOODRUFF       DRIZZLE   49  48  97 SW10      29.65F
RHINELANDER    LGT RAIN  50  50 100 S13G20    29.67F FOG
EAGLE RIVER    SNOW      46  46 100 S9        29.66F VSB 1/2
LAND O LAKES   LGT RAIN  47  47 100 S9G16     29.66F VSB 3/4
PHILLIPS       CLOUDY    49  49 100 SW10G20   29.67R FOG
TOMAHAWK       RAIN      48  47  98 S6        29.69F VSB 1
MEDFORD        CLOUDY    48  48  99 SW10G17   29.71R
MERRILL        NOT AVBL
$$

WIZ029-030-035-036-043>047-210800-
CENTRAL WISCONSIN

CITY           SKY/WX    TMP DP  RH WIND       PRES   REMARKS
WAUSAU         LGT RAIN  50  50 100 SW12      29.71F FOG
MOSINEE        CLOUDY    50  50 100 SW13      29.74F FOG
MARSHFIELD     CLOUDY    52  49  89 W15       29.73R
STEVENS POINT  CLOUDY    51  51 100 S10       29.75F FOG
WAUPACA        CLOUDY    55  54  97 S8        29.78S FOG
WAUTOMA        CLOUDY    54  54 100 S8        29.79S FOG
WISC RAPIDS    CLOUDY    54  54 100 SW10      29.76F FOG
CAMP DOUGLAS   CLOUDY    57  54  88 SW10      29.77S
$$

WIZ011>013-019>022-031-037>040-048>050-210800-
NORTHEAST WISCONSIN

CITY           SKY/WX    TMP DP  RH WIND       PRES   REMARKS
ANTIGO         SNOW      43  43 100 S13       29.73F VSB<1/4
SHAWANO        CLOUDY    52  51  95 S5        29.76F FOG
OCONTO         CLOUDY    46  44  94 S6        29.76F
STURGEON BAY   LGT RAIN  45  42  89 S15G22    29.80S
GREEN BAY      LGT RAIN  50  50 100 S9        29.78F FOG
MANITOWOC      NOT AVBL
APPLETON       DRIZZLE   50  50 100 S9        29.77F
CLINTONVILLE   LGT RAIN  52  50  93 S10       29.76F
OSHKOSH        LGT RAIN  52  50  93 S15       29.79F
$$

WIZ032>034-041-042-053>061-210800-
SOUTHWEST WISCONSIN

CITY           SKY/WX    TMP DP  RH WIND       PRES   REMARKS
LA CROSSE      CLOUDY    51  46  83 W10       29.83R
SPARTA         CLOUDY    51  48  90 W8G16     29.82R
VIROQUA        CLOUDY    49  47  93 W12       29.83R
BOSCOBEL       CLOUDY    57  55  93 SW13      29.83F
PRAIRIE DU CHI CLOUDY    48  47  97 NW7       29.87R
PLATTEVILLE    CLOUDY    53  53 100 SW10      29.87R VSB 1/4
$$

WIZ056-057-062-063-064-067-068-210800-
SOUTH CENTRAL WISCONSIN

CITY           SKY/WX    TMP DP  RH WIND       PRES   REMARKS
REEDSBURG      LGT RAIN  55  55 100 SW13      29.80F
BARABOO/DELLS  LGT RAIN  55  52  90 SW8       29.81R
LONE ROCK      NOT AVBL
MINERAL POINT  LGT RAIN  55  55 100 SW9       29.85R
MADISON        CLOUDY    55  54  96 S6        29.83F FOG
MIDDLETON        N/A     57  57 100 SW10      29.84R
WATERTOWN      DRIZZLE   53  53 100 CALM      29.85F
MONROE         DRIZZLE   54  54 100 S8        29.85F
JANESVILLE     DRIZZLE   55  55 100 S7        29.88R
$$

WIZ051-052-058>065-066-070>072-210800-
SOUTHEAST WISCONSIN

CITY           SKY/WX    TMP DP  RH WIND       PRES   REMARKS
MILWAUKEE      CLOUDY    55  44  66 S7        29.87F
WAUKESHA       RAIN      54  48  82 SW12      29.89R
MILWAUKEE/TIMM CLOUDY    55  43  62 SW6       29.88R
RACINE         CLOUDY    47  39  74 S5        29.89F
KENOSHA        CLOUDY    58  46  64 SW13      29.88F
FOND DU LAC    LGT RAIN  53  50  89 S13       29.81F FOG
SHEBOYGAN      LGT RAIN  44  40  85 S8        29.84F
WEST BEND      DRIZZLE   54  52  94 S8        29.86F
JUNEAU         RAIN      53  52  97 S12       29.85F
$$

LSZ147-162-210800-
LAKE SUPERIOR

STATION/POSITION TIME  TEMP    WIND        PRES    WAVE
                       AIR SEA DIR/SP/G            HT/PER
                 (UTC) (F)     (DEG/KT/KT) (MB)    (FT/S)
DEVILS ISLAND    0600   42     240/ 13/ 15 1002.2R
PORT WING        0640   40     250/ 11/ 17 1005.4R
SAXON HARBOR     0630   52     210/  7/ 13 1002.4R
$$

LMZ867-665-643>646-210800-
LAKE MICHIGAN

STATION/POSITION TIME  TEMP    WIND        PRES    WAVE
                       AIR SEA DIR/SP/G            HT/PER
                 (UTC) (F)     (DEG/KT/KT) (MB)    (FT/S)
CHAMBERS ISLAND  0640   44     150/  9/ 19 1008.1F
NORTHPORT PIER   0640   43     170/ 10/ 20 1009.1F
SISTER BAY       0620   45     170/ 30/ 40   N/A
KEWAUNEE LAKESHO 0630   40     180/ 17/ 19 1009.7F
SHEBOYGAN LAKESH 0600   45     180/ 20/ 21 1011.6F
PORT WASHINGTON  0630   42     180/  2/  5 1012.5F
MILWAUKEE LAKESH 0630   40     210/  2/  4   N/A
KENOSHA   LAKESH 0600   41     180/ 11/ 15 1012.2
$$

TC  - TEMPERATURE IN CELSIUS
VSB - VISIBILITY IN STATUTE MILES
WCI - WIND CHILL INDEX
HX  - HEAT INDEX





USA.gov is the U.S. government's official web portal to all federal, state and local government web resources and services.